Location: Riverside Cemetery
(38.3047°N, 99.7773°W)
Time: 17:17:46
(UTC+00:00)

H-2A R/B - Pass Details

Date: 19 September 2020
Orbit: 577 x 655 km, 98.5° (Epoch: 22 October)

Event Time Altitude Azimuth Distance (km) Brightness Sun altitude
Rises 10:32:48 0° 168° (SSE) 2,864 5.4 -22.3°
Reaches altitude 10° 10:34:56 10° 169° (S) 1,976 4.5 -21.9°
Maximum altitude 10:39:15 82° 257° (WSW) 641 1.9 -21.1°
Drops below altitude 10° 10:43:41 10° 345° (NNW) 2,037 4.7 -20.3°
Sets 10:45:56 0° 346° (NNW) 2,960 5.6 -19.8°
